Simultaneous Nadir Overpasses (SNOs) Predictions

Prediction of SNOs between AQUA and METOP-A Satellite Orbit:

Table of predicted SNOs for the next 14.0 days since TLE Epoch: 1/20/2012
Index Date Time (AQUA) AQUA Lat,Lon METOP-A Lat,Lon Distance(km) Time Diff (sec)
1 01/21/2012 07:58:31 71.07, 59.40 71.05, 49.30 364.06 29
2 01/21/2012 08:48:47 -73.76,-137.96 -73.75,-137.97 0.89 56
3 01/21/2012 09:38:16 73.84, 29.51 73.84, 29.58 2.49 13
4 01/21/2012 10:27:52 -74.38,-164.09 -74.37,-161.76 69.70 68
5 01/24/2012 03:32:58 71.83, 124.60 71.81, 117.04 262.16 45
6 01/24/2012 04:23:00 -73.76, -71.51 -73.78, -71.49 2.91 44
7 01/24/2012 05:12:29 73.84, 95.95 73.82, 95.93 2.27 26
8 01/24/2012 06:02:15 -74.88, -98.90 -74.89, -93.98 142.66 60
9 01/26/2012 23:07:22 72.45,-170.06 72.44,-175.34 176.75 56
10 01/26/2012 23:57:12 -73.79, -5.12 -73.76, -5.15 3.47 31
11 01/27/2012 00:46:40 73.82, 162.44 73.84, 162.37 2.82 39
12 01/27/2012 01:36:38 -75.46, -34.01 -75.43, -25.98 224.45 50
13 01/29/2012 18:41:44 73.05,-104.76 73.02,-107.75 97.02 65
14 01/29/2012 19:31:24 -73.80, 61.31 -73.78, 61.29 2.83 18
15 01/29/2012 20:20:52 73.84,-131.14 73.85,-131.19 2.20 52
16 01/29/2012 21:11:03 -76.11, 30.50 -76.05, 42.43 318.67 37
17 02/01/2012 14:16:05 73.57, -39.38 73.52, -40.22 26.85 71
18 02/01/2012 15:05:35 -73.79, 127.78 -73.79, 127.72 2.07 4




NCC Satellite Simultaneous Nadir Overpasses (SNOs) Prediction Service
